Change the Weather History Date:

Tuesday, February 5, 2013

  Actual Average (KMIE) Record (KMIE)
Temperature  
Mean Temperature 24 °F 27 °F  
Max Temperature 62 °F 35 °F 60 °F (1991)
Min Temperature 15 °F 20 °F -11 °F (1979)
Degree Days  
Heating Degree Days 42 38  
Month to date heating degree days 190  
Since 1 July heating degree days 3583  
Cooling Degree Days 0 0  
Month to date cooling degree days 0  
Year to date cooling degree days 0  
Moisture  
Dew Point 22 °F    
Average Humidity 85    
Maximum Humidity 96    
Minimum Humidity 72    
Precipitation  
Precipitation 0.00 in 0.08 in 1.91 in (2008)
Month to date precipitation 0.39  
Year to date precipitation 2.62  
Sea Level Pressure  
Sea Level Pressure 29.90 in    
Wind  
Wind Speed 6 mph (WSW)    
Max Wind Speed 16 mph    
Max Gust Speed 22 mph    
Visibility 4 miles    
Events Fog , Snow    
T = Trace of Precipitation, MM = Missing Value Source: NWS Daily Summary

Daily Weather History Graph

Daily Weather History Graph

Search for Another Location

Airport or City:

Trip Planner

Search our weather history database for the weather conditions in past years. The results will help you decide how hot, cold, wet, or windy it might be!

Date:

Astronomy

Feb. 05, 2013 Rise Set
Actual Time 7:47 AM EST 6:06 PM EST
Civil Twilight 7:19 AM EST 6:34 PM EST
Nautical Twilight 6:46 AM EST 7:07 PM EST
Astronomical Twilight 6:15 AM EST 7:39 PM EST
Moon 3:29 AM EST (2/5) 1:22 PM EST (2/5)
Length of Visible Light 11h 15m
Length of Day
10h 18m
Waning Crescent, 27% of the Moon is Illuminated
Feb 5
Waning Crescent
Feb 10
New
Feb 17
First Quarter
Feb 25
Full
Mar 4
Last Quarter

Hourly Weather History & Observations

Time (EST) Temp. Windchill Dew Point Humidity Pressure Visibility Wind Dir Wind Speed Gust Speed Precip Events Conditions
12:15 AM 24.8 °F 16.1 °F 20.5 °F 84% 29.89 in 4.0 mi NNE 8.1 mph - N/A Snow Light Snow
12:35 AM 24.6 °F 16.7 °F 20.3 °F 84% 29.90 in 3.0 mi North 6.9 mph - N/A Snow Light Snow
12:55 AM 24.4 °F 18.6 °F 20.3 °F 84% 29.91 in 5.0 mi North 4.6 mph - N/A Snow Light Snow
1:15 AM 24.1 °F 17.0 °F 20.1 °F 85% 29.91 in 4.0 mi North 5.8 mph - N/A Snow Light Snow
1:35 AM 23.7 °F - 19.9 °F 85% 29.91 in 3.0 mi Calm Calm - N/A Snow Light Snow
1:55 AM 23.4 °F - 19.6 °F 85% 29.91 in 5.0 mi Calm Calm - N/A Snow Light Snow
2:15 AM 22.6 °F - 19.0 °F 86% 29.91 in 4.0 mi Calm Calm - N/A Snow Light Snow
2:35 AM 21.7 °F - 18.5 °F 87% 29.92 in 2.5 mi Calm Calm - N/A Snow Light Snow
2:55 AM 21.0 °F - 18.1 °F 89% 29.92 in 2.5 mi Calm Calm - N/A Snow Light Snow
3:15 AM 19.0 °F - 16.7 °F 91% 29.91 in 3.0 mi Calm Calm - N/A Snow Light Snow
3:35 AM 19.2 °F - 17.6 °F 93% 29.91 in 1.8 mi Calm Calm - N/A Snow Light Snow
3:55 AM 18.9 °F - 17.4 °F 94% 29.92 in 2.0 mi Calm Calm - N/A Snow Light Snow
4:15 AM 18.5 °F - 16.9 °F 93% 29.91 in 1.5 mi Calm Calm - N/A Snow Light Snow
4:35 AM 18.3 °F - 16.5 °F 93% 29.90 in 2.0 mi Calm Calm - N/A Snow Light Snow
4:55 AM 19.0 °F - 17.4 °F 93% 29.90 in 2.5 mi Calm Calm - N/A Snow Light Snow
5:15 AM 19.8 °F - 18.1 °F 93% 29.91 in 2.5 mi Calm Calm - N/A Snow Light Snow
5:35 AM 20.1 °F - 18.5 °F 93% 29.91 in 2.5 mi Calm Calm - N/A Snow Light Snow
5:55 AM 19.8 °F - 18.1 °F 93% 29.91 in 2.5 mi Calm Calm - N/A Snow Light Snow
6:15 AM 19.2 °F - 17.6 °F 93% 29.91 in 2.5 mi Calm Calm - N/A Snow Light Snow
6:35 AM 18.7 °F - 16.9 °F 93% 29.92 in 2.0 mi Calm Calm - N/A Snow Light Snow
6:55 AM 18.7 °F - 16.9 °F 93% 29.91 in 2.0 mi Calm Calm - N/A Snow Light Snow
7:15 AM 18.7 °F - 16.9 °F 93% 29.91 in 1.8 mi Calm Calm - N/A   Mist
7:35 AM 17.6 °F - 15.6 °F 92% 29.92 in 1.8 mi Calm Calm - N/A Snow Light Snow
7:55 AM 16.3 °F - 14.2 °F 91% 29.93 in 0.2 mi Calm Calm - N/A Snow Light Snow
8:15 AM 15.6 °F - 13.3 °F 90% 29.93 in 0.2 mi Calm Calm - N/A Fog Light Freezing Fog
8:35 AM 15.4 °F - 13.3 °F 91% 29.93 in 0.2 mi Calm Calm - N/A Fog Light Freezing Fog
8:55 AM 17.4 °F - 15.4 °F 92% 29.93 in 2.0 mi Calm Calm - N/A   Scattered Clouds
9:15 AM 18.5 °F - 16.5 °F 92% 29.93 in 1.5 mi Calm Calm - N/A   Mist
9:35 AM 20.5 °F - 18.9 °F 93% 29.93 in 1.5 mi Calm Calm - N/A   Mostly Cloudy
9:55 AM 21.7 °F 15.5 °F 20.5 °F 95% 29.93 in 2.0 mi South 4.6 mph - N/A   Mostly Cloudy
10:15 AM 22.6 °F 16.5 °F 21.4 °F 95% 29.94 in 2.5 mi South 4.6 mph - N/A   Mostly Cloudy
10:35 AM 23.4 °F 15.2 °F 22.1 °F 95% 29.94 in 4.0 mi SSW 6.9 mph - N/A   Overcast
10:55 AM 23.9 °F 16.8 °F 22.8 °F 96% 29.93 in 5.0 mi South 5.8 mph - N/A   Overcast
11:15 AM 24.4 °F 14.9 °F 23.4 °F 96% 29.92 in 5.0 mi South 9.2 mph - N/A   Scattered Clouds
11:35 AM 25.2 °F 15.7 °F 23.7 °F 94% 29.91 in 4.0 mi South 9.2 mph - N/A   Scattered Clouds
11:55 AM 26.2 °F 17.1 °F 22.5 °F 86% 29.90 in 2.5 mi SSW 9.2 mph - N/A   Haze
12:15 PM 27.3 °F 17.7 °F 21.7 °F 80% 29.89 in 5.0 mi South 10.4 mph - N/A   Haze
12:35 PM 27.9 °F 19.1 °F 21.4 °F 77% 29.88 in 7.0 mi South 9.2 mph - N/A   Mostly Cloudy
12:55 PM 28.6 °F 17.7 °F 21.2 °F 74% 29.86 in 4.0 mi SSW 13.8 mph - N/A   Haze
1:15 PM 28.9 °F 18.2 °F 21.2 °F 73% 29.86 in 5.0 mi South 13.8 mph - N/A   Haze
1:35 PM 29.3 °F 20.2 °F 21.4 °F 72% 29.85 in 2.5 mi South 10.4 mph - N/A   Haze
1:55 PM 29.7 °F 21.3 °F 22.1 °F 73% 29.84 in 5.0 mi SSW 9.2 mph - N/A   Haze
2:15 PM 30.0 °F 20.0 °F 22.3 °F 73% 29.83 in 3.0 mi South 12.7 mph - N/A   Haze
2:35 PM 30.4 °F 21.0 °F 22.5 °F 72% 29.82 in 4.0 mi SSW 11.5 mph - N/A   Haze
2:55 PM 30.9 °F 21.7 °F 22.8 °F 72% 29.82 in 4.0 mi SSW 11.5 mph - N/A   Haze
3:15 PM 31.1 °F 22.4 °F 23.4 °F 73% 29.82 in 7.0 mi SSW 10.4 mph - N/A   Scattered Clouds
3:35 PM 31.3 °F 22.7 °F 23.9 °F 74% 29.82 in 4.0 mi SW 10.4 mph - N/A Snow Light Snow
3:55 PM 31.6 °F 23.1 °F 24.8 °F 76% 29.82 in 4.0 mi SW 10.4 mph - N/A   Haze
4:15 PM 31.8 °F 23.9 °F 25.2 °F 76% 29.83 in 5.0 mi SW 9.2 mph - N/A   Haze
4:35 PM 32.0 °F 23.6 °F 25.5 °F 77% 29.82 in 7.0 mi SW 10.4 mph - N/A   Overcast
4:55 PM 32.2 °F 23.2 °F 25.5 °F 76% 29.85 in 7.0 mi WSW 11.5 mph - N/A   Overcast
5:15 PM 32.2 °F 21.8 °F 26.2 °F 79% 29.85 in 4.0 mi WSW 15.0 mph - N/A Snow Light Snow
5:35 PM 32.0 °F 22.1 °F 26.8 °F 81% 29.86 in 3.0 mi West 13.8 mph - N/A Snow Light Snow
5:55 PM 32.0 °F 23.6 °F 27.3 °F 83% 29.88 in 7.0 mi West 10.4 mph - N/A   Overcast
6:15 PM 32.0 °F 24.2 °F 27.5 °F 83% 29.87 in 7.0 mi West 9.2 mph - N/A   Overcast
6:35 PM 32.0 °F 23.6 °F 27.3 °F 83% 29.88 in 10.0 mi West 10.4 mph - N/A   Overcast
6:55 PM 32.0 °F 24.2 °F 27.5 °F 83% 29.89 in 7.0 mi West 9.2 mph - N/A   Overcast
7:15 PM 32.2 °F 23.8 °F 28.0 °F 85% 29.89 in 4.0 mi West 10.4 mph - N/A Snow Light Snow
7:35 PM 32.4 °F 23.5 °F 28.6 °F 86% 29.91 in 3.0 mi West 11.5 mph - N/A Snow Light Snow
7:55 PM 32.7 °F 23.4 °F 28.6 °F 85% 29.91 in 4.0 mi WNW 12.7 mph - N/A Snow Light Snow
8:15 PM 32.7 °F 22.1 °F 28.8 °F 85% 29.92 in 4.0 mi WNW 16.1 mph 21.9 mph N/A   Haze
8:35 PM 32.5 °F 23.2 °F 28.4 °F 85% 29.93 in 7.0 mi WNW 12.7 mph - N/A   Overcast
8:55 PM 32.4 °F 23.0 °F 28.4 °F 85% 29.94 in 7.0 mi WNW 12.7 mph - N/A   Overcast
9:15 PM 32.2 °F 22.7 °F 28.4 °F 86% 29.95 in 5.0 mi WNW 12.7 mph - N/A Snow Light Snow
9:35 PM 32.0 °F 22.5 °F 28.2 °F 86% 29.95 in 4.0 mi WNW 12.7 mph - N/A Snow Light Snow
9:55 PM 32.0 °F 23.0 °F 28.0 °F 85% 29.96 in 3.0 mi WNW 11.5 mph 17.3 mph N/A Snow Light Snow
10:15 PM 32.0 °F 21.6 °F 27.7 °F 84% 29.97 in 4.0 mi WNW 15.0 mph 18.4 mph N/A Snow Light Snow
10:35 PM 32.0 °F 21.2 °F 27.3 °F 83% 29.98 in 5.0 mi WNW 16.1 mph - N/A   Haze
10:55 PM 32.0 °F 22.1 °F 27.3 °F 83% 29.99 in 5.0 mi WNW 13.8 mph - N/A   Haze
11:15 PM 31.6 °F 21.2 °F 27.1 °F 83% 30.00 in 7.0 mi NW 15.0 mph - N/A   Overcast
11:35 PM 31.3 °F 21.6 °F 26.4 °F 82% 30.01 in 5.0 mi NW 12.7 mph 20.7 mph N/A   Haze
11:55 PM 31.1 °F 21.9 °F 26.2 °F 82% 30.01 in 5.0 mi NW 11.5 mph - N/A   Haze